Temperature
18 18 18 18 18 18 18 18 18 18 18 18 17 17 17 16 16 16 15 15 15 15 15 14 14 14 14 14 14 14 14 14 14 15 15 16 16 16 16 16 16 17 16
18 18 18 18 18 18 18 18 18 18 18 18 17 17 16 16 16 15 15 15 15 15 14 14 14 14 14 13 13 13 13 14 14 14 14 15 15 16 16 16 16 16 16
18 18 18 18 18 19 19 19 19 18 18 18 17 17 16 16 16 15 15 15 15 14 14 14 14 14 13 13 13 13 13 13 13 13 13 13 14 14 15 15 15 15 16
19 19 19 19 19 19 19 19 19 19 18 18 17 17 16 16 16 15 15 15 14 14 14 14 13 13 13 13 13 13 13 13 13 13 13 13 13 13 14 15 15 15 15
19 19 19 19 19 19 19 19 19 19 18 18 17 17 16 16 16 15 15 15 14 14 14 13 13 13 13 13 13 13 12 12 12 12 13 13 13 13 13 13 14 15 15
20 20 20 20 20 20 20 19 19 19 18 18 17 17 17 16 16 15 15 15 14 14 14 13 13 13 13 13 13 12 12 12 12 12 12 12 12 12 12 12 13 14 15
20 20 20 20 20 20 20 20 19 19 18 18 18 17 17 16 16 15 15 14 14 14 13 13 13 13 13 12 12 12 12 12 12 12 12 12 12 12 12 12 12 13 14
21 21 21 21 21 21 20 20 20 19 19 18 18 17 17 16 16 16 15 15 14 14 13 13 13 13 12 12 12 12 12 12 12 11 11 11 11 11 11 11 11 12 12
22 22 22 22 21 21 21 21 20 20 19 19 18 18 17 17 16 16 15 15 14 14 13 13 13 12 12 12 12 12 12 12 11 11 11 11 11 11 11 11 11 11 11
22 22 22 22 22 22 21 21 21 20 19 19 18 18 18 17 17 16 16 15 15 14 13 13 13 13 12 12 12 12 12 11 11 11 11 11 11 11 11 11 11 11 11
23 23 23 23 22 22 22 21 21 20 20 19 19 19 18 18 17 17 16 16 15 14 14 13 13 13 12 12 12 12 11 11 11 11 11 11 11 11 11 11 11 11 11
24 24 24 23 23 22 22 21 21 21 20 20 19 19 18 18 17 17 17 16 15 14 14 13 13 13 12 12 12 11 11 11 11 11 11 11 11 11 10 10 10 10 10
24 24 24 23 23 23 22 22 21 21 20 20 20 19 19 18 18 17 17 16 15 15 14 14 13 13 12 12 12 11 11 11 11 11 11 11 10 10 10 10 10 10 10
25 24 24 24 23 23 23 22 22 21 21 20 20 19 19 18 18 17 17 16 16 15 15 15 14 14 13 12 12 12 11 11 11 11 10 10 10 10 10 10 10 10 10
25 25 24 24 24 23 23 22 22 21 21 21 20 20 19 19 18 17 17 16 16 16 15 15 15 14 14 13 13 12 12 11 11 10 10 10 10 10 10 10 10 10 9
25 25 25 24 24 24 23 23 22 22 21 21 21 20 19 19 18 18 17 17 16 16 16 15 15 14 14 13 13 12 11 11 11 10 10 10 10 10 10 10 9 9 9
24 24 24 24 24 24 23 23 23 22 21 21 21 20 19 19 18 18 17 17 17 16 16 15 15 15 14 13 13 12 12 11 11 10 10 10 10 10 10 10 9 9 9
23 24 24 24 24 24 23 23 22 22 21 21 20 20 19 19 18 18 17 17 17 16 16 15 15 15 15 14 13 12 12 11 11 11 10 10 10 10 10 9 9 9 9
22 23 23 23 23 23 23 22 22 21 21 20 20 20 19 19 18 18 17 17 16 16 16 16 15 15 15 14 13 12 12 11 11 11 10 10 10 10 9 9 9 9 9
21 21 22 22 22 22 22 21 21 21 20 20 20 20 19 18 18 18 17 17 16 16 16 15 15 15 14 14 13 12 12 11 11 11 11 10 10 10 9 9 9 9 9
19 19 20 20 20 20 20 20 20 19 20 19 19 19 18 18 17 17 16 16 16 15 15 15 15 14 14 14 13 12 12 12 11 11 11 11 10 10 9 9 9 9 9
18 18 18 18 18 18 18 18 18 18 18 18 17 17 17 16 16 16 15 15 15 15 15 15 14 14 14 13 13 12 12 11 11 11 11 10 10 10 9 9 9 9 8
16 16 17 17 17 16 17 16 16 16 16 16 16 16 15 15 15 15 14 14 14 14 14 14 14 14 14 13 13 12 12 11 11 11 10 10 10 9 9 9 9 8 8
16 16 16 16 15 15 15 15 15 15 15 14 14 14 14 14 14 13 13 13 13 13 13 13 13 13 13 13 13 12 12 11 11 11 10 10 9 9 9 9 9 9 8
15 14 14 14 14 14 14 14 14 14 13 13 13 13 12 12 12 12 12 12 12 12 12 12 12 12 12 12 12 12 11 11 11 10 10 9 9 9 9 9 9 9 8
14 14 13 13 13 13 12 12 12 12 12 12 12 12 11 11 11 11 11 11 11 11 11 11 12 12 12 12 12 11 11 11 10 10 9 9 9 9 9 9 9 9 8
Wind_Speed
8 8 9 10 9 9 9 8 7 6 5 4 4 3 3 3 3 4 7 7 7 8 7 4 5 5 5 5 5 4 5 4 4 4 5 5 4 4 4 3 3 5 9
8 9 10 10 9 9 9 8 8 7 6 4 4 3 3 3 3 3 5 7 7 7 6 4 3 4 4 6 6 5 3 4 4 3 3 4 6 5 4 3 2 3 3
12 11 11 10 10 10 10 10 9 8 7 6 3 3 3 3 2 2 2 4 6 6 7 6 4 3 4 4 4 4 4 3 3 3 3 2 2 4 4 4 5 5 3
11 11 12 12 12 12 11 10 10 9 7 7 6 5 4 3 3 3 3 3 4 6 7 7 5 3 3 3 2 3 2 3 3 3 2 1 3 1 4 5 5 6 5
13 13 13 14 14 13 12 11 10 9 8 8 8 7 5 4 3 3 3 2 2 3 7 7 5 3 2 2 2 2 2 1 1 1 2 2 1 1 1 4 5 5 4
14 13 13 13 13 12 11 11 11 10 9 9 8 8 8 7 5 3 3 1 1 1 5 7 5 4 3 2 1 0 1 1 1 1 0 0 0 1 1 2 4 5 5
13 13 13 13 14 14 13 12 12 11 10 10 9 9 9 8 7 5 4 3 2 2 5 5 4 3 4 3 2 1 2 1 1 2 2 2 2 2 2 2 3 3 4
14 16 16 15 15 16 15 14 14 11 10 10 9 8 9 6 5 5 5 5 4 4 5 5 5 5 5 4 3 2 3 2 2 3 3 2 3 2 2 2 2 3 3
16 17 16 15 15 15 15 16 15 11 11 10 9 8 9 8 7 6 5 4 4 4 6 6 6 6 5 5 4 4 4 4 4 4 4 3 3 3 2 2 3 2 2
16 16 15 15 14 14 13 13 14 13 11 10 10 9 8 8 8 7 6 6 5 5 6 6 6 6 6 6 5 5 5 5 5 4 5 4 4 4 3 3 2 3 4
17 16 15 14 13 12 12 12 12 11 10 11 9 9 8 8 8 7 7 7 6 6 7 7 7 7 7 6 6 7 7 7 6 6 6 6 5 4 4 3 3 3 3
15 15 14 12 11 12 13 13 13 12 12 11 10 9 9 8 8 8 8 7 7 7 7 7 7 7 7 7 7 7 7 7 8 8 7 7 6 5 5 4 4 4 4
12 11 11 12 13 14 14 14 14 14 12 11 10 9 9 9 9 8 8 7 8 8 7 7 8 8 8 7 7 8 7 8 8 8 8 8 7 7 5 5 5 5 5
12 12 12 13 14 14 15 14 14 13 12 11 11 11 10 10 10 9 8 8 8 8 8 8 8 8 8 8 8 8 8 8 7 7 8 8 8 8 8 6 7 6 6
12 14 15 14 13 13 13 14 13 13 12 12 12 12 11 10 9 9 9 9 9 9 9 8 8 8 7 7 8 7 7 7 7 7 7 8 10 11 9 7 7 7 6
11 13 14 14 15 16 16 14 14 13 12 13 13 12 10 10 10 10 9 9 9 9 8 8 8 8 7 10 12 9 7 7 7 7 7 8 9 11 13 13 12 10 9
6 9 11 13 14 15 15 16 16 13 12 13 12 11 11 12 12 11 10 10 10 9 8 8 8 8 10 12 13 14 9 8 8 8 7 8 8 9 7 9 10 10 13
3 5 6 8 8 9 11 12 10 11 13 12 11 11 11 12 11 10 11 10 8 8 8 8 9 8 10 13 14 14 10 8 9 9 9 9 9 9 9 8 8 8 9
4 0 3 4 5 6 7 8 9 9 10 11 11 12 12 12 11 11 11 9 8 8 8 7 9 9 10 13 15 13 7 8 10 9 9 10 10 13 14 10 9 9 9
11 9 8 8 5 3 2 4 6 7 9 11 11 10 10 10 11 11 10 8 8 10 9 9 9 10 10 13 15 14 6 8 8 8 9 13 13 14 14 9 9 10 10
13 12 12 11 10 8 5 2 1 4 7 6 5 6 7 8 8 8 7 7 8 8 9 9 9 10 12 13 16 15 9 9 9 8 8 9 14 15 15 12 9 13 11
13 12 12 11 10 10 8 7 4 4 3 1 1 2 3 4 5 6 6 6 7 9 9 9 9 9 10 12 14 17 17 14 10 10 9 9 14 14 13 9 11 14 10
10 9 10 11 11 11 10 8 7 6 6 5 3 3 3 3 3 4 6 5 6 7 8 8 10 10 8 9 16 17 18 19 13 10 13 13 14 12 10 12 14 11 6
8 8 9 10 10 9 9 7 7 7 7 7 6 5 5 5 5 4 5 5 6 8 9 9 10 10 8 8 8 8 9 12 12 10 11 13 13 11 11 10 9 8 8
6 6 7 7 7 7 8 8 7 7 7 6 6 6 5 5 6 6 6 8 8 10 11 10 10 10 11 13 14 10 8 8 9 6 4 4 5 6 6 7 8 7 7
6 6 7 7 6 7 8 7 6 6 6 6 6 5 5 6 6 8 9 12 14 17 18 19 16 13 15 15 15 17 17 14 11 7 5 6 7 9 9 9 9 8 9
Wind_Direction
163 159 161 156 147 143 144 151 148 152 135 123 124 124 138 152 157 167 152 137 119 101 89 73 53 45 42 28 21 24 22 9 4 16 344 332 329 317 293 268 251 238 231
167 165 167 163 160 159 161 163 163 161 155 153 158 160 152 161 166 167 161 156 141 131 116 101 82 60 48 34 34 41 35 5 20 36 22 351 342 338 341 345 327 278 249
175 173 173 174 169 171 176 176 178 174 171 162 135 102 80 72 82 118 178 192 168 153 136 125 109 82 72 53 47 55 64 23 358 35 81 60 317 313 324 348 3 349 322
179 181 179 180 182 185 185 182 182 181 178 163 150 147 148 156 179 180 195 211 192 173 157 142 127 109 95 78 50 72 72 68 14 360 36 166 199 257 318 327 345 346 341
186 188 187 188 189 190 188 187 184 185 182 171 161 150 147 158 160 149 161 200 234 192 171 155 144 131 121 115 82 58 52 76 83 349 342 354 12 88 148 312 328 335 331
191 192 193 191 193 194 191 186 184 189 183 174 166 159 159 164 160 164 177 221 269 181 173 164 160 157 156 165 173 141 16 355 304 273 275 87 353 324 354 282 306 312 307
191 194 196 195 196 196 195 190 185 189 184 177 174 172 171 172 176 184 189 194 190 178 183 170 175 181 191 198 197 214 266 281 274 261 252 230 224 218 206 231 278 295 300
194 198 202 200 198 196 194 189 187 187 183 180 181 178 171 169 173 181 178 182 190 195 191 182 190 201 205 211 201 213 243 239 256 265 253 248 257 229 210 212 242 310 313
198 201 204 201 196 193 192 189 186 184 183 182 177 178 177 174 175 179 176 181 192 190 182 188 197 209 214 218 214 225 241 245 251 255 254 248 252 245 232 210 185 192 282
200 203 203 200 197 193 188 183 180 181 181 178 180 186 186 184 181 179 187 192 196 186 183 196 205 215 222 223 220 231 238 239 250 244 249 254 252 255 248 232 210 184 196
201 202 203 199 191 182 176 176 177 174 176 181 182 179 184 186 184 189 201 203 206 204 202 206 210 217 224 225 222 231 236 238 248 251 246 252 252 251 254 248 241 225 199
201 200 196 185 177 176 174 176 178 177 181 181 177 180 183 183 188 199 209 209 211 212 210 209 212 220 224 222 219 229 232 229 236 243 243 250 253 248 247 244 246 247 232
198 191 182 178 179 179 179 180 182 184 183 178 178 182 186 189 197 205 208 207 208 213 214 210 215 222 223 220 221 222 228 228 230 232 232 240 240 247 246 243 244 246 255
188 183 182 183 183 182 182 184 188 187 184 181 181 188 195 197 201 204 206 208 208 211 215 216 219 221 222 222 222 222 226 231 233 231 229 232 228 235 241 244 241 240 249
180 182 183 184 186 186 189 190 192 191 187 184 190 198 199 198 199 203 208 211 212 216 215 218 223 224 223 225 221 220 224 226 232 235 235 236 237 237 235 238 234 233 236
183 184 184 185 190 193 194 195 197 196 188 190 199 199 194 196 201 206 208 210 215 218 216 219 222 225 228 225 217 207 212 214 220 233 241 249 255 256 253 252 246 230 226
173 182 187 192 196 199 196 199 202 195 192 198 201 197 195 199 206 207 206 211 215 216 219 224 223 228 232 231 227 220 210 216 222 228 237 252 254 253 251 261 266 259 245
156 185 195 199 201 197 198 199 193 189 195 200 203 200 198 204 205 204 209 213 212 213 219 225 226 231 237 233 232 229 219 220 227 228 229 236 250 255 247 250 257 255 253
45 186 202 204 206 209 204 188 189 191 195 202 204 202 200 203 204 208 214 212 208 215 217 219 223 229 241 239 236 228 215 226 236 236 234 233 244 251 250 247 251 257 259
36 34 33 36 26 317 223 180 197 197 211 216 213 207 200 201 206 214 217 213 210 218 220 226 225 227 237 240 236 224 211 228 240 242 240 238 242 250 251 240 238 249 255
39 40 43 41 25 14 47 71 340 253 244 237 217 209 209 212 216 219 220 219 220 224 226 232 235 232 236 241 238 225 210 224 233 240 242 240 239 245 250 242 230 240 244
38 38 41 37 27 28 44 43 9 317 333 6 246 233 226 226 231 228 233 231 228 232 236 238 246 245 241 239 241 233 222 218 222 234 238 235 236 240 246 243 234 242 244
39 35 40 35 27 27 38 35 0 4 25 30 10 338 310 283 263 243 246 249 239 239 245 242 247 253 247 242 241 240 233 225 222 234 233 230 233 237 244 244 244 243 234
35 34 39 36 24 18 29 27 18 33 39 29 10 356 343 326 315 294 269 259 255 253 253 249 250 252 251 247 241 235 236 231 227 235 239 238 241 240 242 248 250 237 227
25 34 38 32 19 16 21 21 25 36 34 19 2 347 334 318 308 297 281 271 260 254 254 255 249 246 251 246 227 217 219 214 212 199 212 221 228 233 239 245 246 238 229
23 26 26 25 17 21 18 12 17 33 31 10 351 336 328 319 310 305 303 286 274 272 262 255 251 249 244 246 235 224 220 210 186 172 210 225 231 239 244 247 249 241 236
Height
1535 1537 1539 1541 1543 1545 1547 1549 1551 1553 1554 1555 1555 1556 1556 1556 1555 1555 1554 1553 1552 1550 1549 1548 1547 1546 1545 1545 1545 1545 1546 1546 1545 1546 1545 1546 1546 1547 1547 1547 1547 1548 1549
1534 1536 1538 1540 1542 1545 1547 1549 1550 1552 1553 1554 1555 1555 1555 1555 1554 1554 1553 1552 1551 1550 1548 1547 1546 1545 1545 1544 1544 1544 1544 1544 1544 1544 1544 1544 1545 1545 1545 1545 1545 1545 1546
1531 1534 1537 1540 1542 1544 1546 1547 1549 1550 1552 1553 1554 1554 1554 1554 1553 1552 1552 1551 1550 1549 1548 1547 1546 1545 1544 1544 1543 1543 1543 1543 1543 1543 1544 1544 1543 1543 1543 1543 1543 1543 1543
1529 1532 1535 1538 1540 1542 1544 1546 1547 1549 1550 1551 1552 1552 1552 1552 1551 1551 1550 1550 1549 1548 1548 1547 1546 1545 1544 1543 1543 1542 1542 1542 1542 1542 1543 1544 1543 1543 1542 1542 1542 1541 1541
1527 1530 1533 1535 1538 1540 1542 1544 1546 1547 1548 1549 1550 1550 1549 1549 1549 1549 1548 1548 1548 1547 1546 1546 1545 1544 1544 1543 1542 1541 1541 1540 1540 1541 1541 1542 1542 1542 1541 1539 1539 1539 1540
1525 1528 1531 1533 1535 1538 1540 1541 1543 1545 1546 1547 1547 1547 1547 1547 1547 1547 1546 1546 1545 1545 1545 1545 1544 1543 1543 1542 1541 1540 1539 1539 1539 1539 1539 1539 1540 1539 1539 1538 1537 1536 1537
1522 1525 1527 1530 1532 1534 1536 1538 1540 1542 1543 1544 1544 1544 1545 1544 1544 1544 1544 1544 1543 1543 1543 1543 1543 1542 1541 1540 1540 1539 1538 1538 1537 1537 1537 1537 1537 1537 1537 1536 1535 1534 1534
1518 1521 1523 1526 1528 1530 1532 1535 1537 1538 1540 1541 1542 1542 1542 1542 1542 1542 1541 1541 1541 1541 1541 1541 1541 1540 1540 1539 1538 1537 1537 1536 1536 1535 1535 1535 1535 1535 1535 1534 1533 1531 1531
1514 1517 1519 1522 1524 1526 1528 1531 1533 1535 1537 1538 1539 1539 1539 1539 1539 1539 1539 1539 1539 1539 1539 1539 1538 1538 1537 1537 1536 1535 1535 1534 1533 1533 1532 1532 1532 1532 1532 1531 1531 1531 1528
1510 1513 1515 1518 1520 1523 1525 1528 1530 1532 1533 1535 1535 1536 1536 1536 1536 1536 1536 1536 1537 1536 1536 1536 1536 1535 1535 1534 1533 1533 1532 1531 1531 1530 1529 1528 1528 1528 1528 1528 1527 1527 1526
1505 1508 1511 1514 1517 1519 1522 1524 1526 1528 1530 1531 1532 1533 1533 1533 1534 1534 1534 1534 1533 1533 1533 1533 1532 1532 1531 1530 1530 1529 1528 1528 1527 1526 1525 1525 1524 1523 1523 1523 1523 1523 1522
1500 1504 1507 1510 1513 1516 1518 1520 1522 1524 1526 1528 1529 1529 1530 1530 1530 1531 1531 1530 1530 1530 1529 1529 1528 1528 1527 1526 1525 1525 1524 1523 1522 1522 1521 1520 1520 1519 1518 1518 1517 1517 1517
1497 1500 1503 1506 1509 1511 1514 1517 1519 1520 1522 1524 1525 1526 1526 1527 1527 1527 1527 1527 1526 1526 1525 1525 1524 1523 1522 1522 1521 1520 1519 1518 1518 1517 1516 1515 1515 1514 1513 1513 1512 1512 1512
1493 1496 1499 1502 1505 1507 1510 1512 1514 1516 1518 1519 1520 1521 1522 1523 1523 1524 1523 1523 1522 1522 1521 1520 1520 1519 1518 1517 1516 1515 1514 1513 1513 1512 1511 1510 1510 1509 1508 1507 1506 1506 1506
1490 1492 1495 1498 1501 1504 1506 1508 1510 1512 1513 1514 1515 1516 1518 1519 1519 1519 1519 1519 1518 1518 1517 1516 1515 1514 1513 1512 1511 1510 1509 1508 1507 1506 1506 1505 1504 1503 1502 1501 1500 1500 1500
1487 1490 1492 1495 1497 1499 1501 1503 1505 1506 1508 1509 1510 1511 1512 1513 1514 1514 1514 1514 1513 1513 1512 1511 1510 1509 1508 1507 1505 1504 1503 1502 1501 1500 1499 1499 1498 1497 1496 1495 1495 1494 1494
1487 1488 1490 1492 1493 1495 1497 1498 1500 1501 1503 1503 1505 1506 1507 1507 1508 1508 1509 1508 1508 1508 1507 1506 1505 1504 1502 1501 1500 1498 1497 1496 1495 1494 1493 1492 1491 1490 1489 1489 1489 1488 1488
1487 1488 1488 1489 1490 1491 1492 1494 1495 1496 1497 1498 1499 1500 1501 1501 1502 1502 1502 1502 1503 1502 1502 1501 1500 1498 1497 1495 1494 1492 1491 1489 1488 1488 1487 1486 1485 1484 1483 1482 1482 1482 1482
1487 1487 1487 1487 1488 1488 1488 1489 1490 1491 1492 1492 1492 1493 1494 1494 1495 1495 1496 1496 1496 1496 1495 1494 1493 1492 1491 1489 1488 1486 1484 1483 1482 1481 1480 1479 1479 1478 1478 1477 1476 1475 1475
1487 1486 1485 1485 1485 1485 1485 1485 1485 1486 1486 1486 1486 1487 1488 1488 1489 1489 1489 1490 1489 1489 1489 1488 1487 1485 1484 1483 1481 1480 1478 1476 1475 1475 1474 1473 1472 1472 1471 1471 1470 1469 1469
1489 1487 1486 1484 1484 1483 1483 1483 1483 1482 1482 1482 1482 1482 1483 1483 1483 1483 1483 1483 1482 1482 1481 1480 1479 1478 1477 1476 1475 1473 1471 1470 1469 1468 1467 1467 1466 1465 1465 1464 1464 1463 1463
1490 1489 1487 1485 1484 1483 1481 1480 1479 1479 1479 1478 1478 1477 1477 1478 1478 1477 1477 1476 1475 1474 1473 1472 1471 1470 1469 1468 1467 1466 1465 1463 1462 1461 1460 1460 1459 1459 1458 1457 1457 1457 1456
1492 1491 1489 1487 1485 1483 1481 1479 1478 1477 1476 1475 1474 1474 1474 1473 1472 1471 1470 1469 1468 1467 1465 1464 1462 1461 1461 1460 1459 1458 1457 1455 1454 1453 1453 1452 1452 1451 1450 1450 1450 1449 1448
1493 1491 1489 1487 1485 1484 1482 1480 1478 1476 1474 1473 1472 1470 1469 1468 1467 1466 1464 1463 1461 1459 1457 1455 1453 1452 1451 1450 1450 1449 1448 1447 1446 1445 1445 1444 1444 1443 1442 1442 1441 1441 1440
1494 1492 1490 1488 1486 1484 1481 1479 1477 1475 1473 1471 1469 1468 1465 1463 1461 1460 1458 1456 1454 1452 1449 1446 1444 1442 1440 1440 1440 1439 1439 1439 1438 1437 1436 1436 1435 1434 1434 1433 1432 1432 1431
1494 1492 1489 1487 1485 1483 1481 1478 1476 1474 1471 1469 1466 1464 1461 1459 1456 1453 1450 1447 1445 1442 1440 1437 1435 1432 1431 1430 1430 1429 1429 1429 1429 1428 1427 1427 1426 1425 1425 1424 1423 1423 1422